Retour au catalogue

STARLINK-2380

ActifCommunicationsVLEO
NORAD 47799·PAYLOAD·🇺🇸 United States

Lancé Mar 11, 2021 depuis Cape Canaveral Space Force Station

Loading…

Prochains Passages (prochaines 24 heures)

TLE

FraisSource: CelesTrak SupGP

Époque: Sep 15, 2026, 02:40 UTC

1 47799C 21018N   26258.11159722 -.00027717  00000+0 -89132-3 0  2588
2 47799  53.1582  70.6202 0001126  81.8804 301.8001 15.31715272    16

Suivez STARLINK-2380 en temps réel avec AllMySat

Download on the App Store